Theta_e
331 326 317 314 316 315 306 303 291 292 294 287 286 289 290 296 300 299 299 300 297 308 325 329 327 326 323 323 326 329 331 323 323 309 308 326 343 345 347 350 351 351 352 354 356 356 355 356 356 356 356 355 355 355 354 353 355 355 355 354 354 353 353 353 353 353 353 353 353 352 353 352 353 353 354 354 354 354 354 353 351 352 351 350 350 350 349 349 347 347 346 346 346 347 347 348 348
325 315 316 315 313 308 302 300 288 289 289 285 288 290 292 297 299 296 296 298 298 321 328 330 330 330 331 331 332 331 330 333 333 331 336 341 344 345 349 350 351 350 352 354 354 354 354 355 356 356 355 355 355 355 355 355 355 355 355 354 354 354 354 354 353 353 353 353 353 353 352 353 353 353 353 353 354 353 352 352 351 350 350 349 349 349 349 348 348 347 347 347 347 347 347 348 347
314 313 313 313 312 307 303 300 290 285 285 284 286 291 295 294 294 297 300 301 302 322 327 330 330 329 327 328 325 325 322 337 336 336 334 341 336 340 347 350 351 352 353 353 353 353 353 355 355 355 355 355 354 354 355 355 355 355 355 355 354 354 354 353 353 353 352 352 353 353 352 352 352 352 353 353 353 353 352 351 351 350 349 348 348 349 349 348 347 347 347 346 346 347 347 347 346
316 316 313 312 302 303 295 295 287 285 285 286 287 293 295 295 297 299 302 303 309 328 325 328 326 332 327 323 326 334 332 332 337 336 334 337 337 342 347 350 352 352 353 353 353 353 353 355 355 354 355 355 355 355 354 355 355 355 355 355 355 354 354 353 353 352 352 352 352 352 352 351 351 352 352 352 353 353 352 351 350 349 348 348 348 348 348 348 348 347 347 346 346 346 346 346 345
316 318 313 312 302 296 296 293 289 287 286 287 286 292 297 297 298 299 301 304 306 321 329 329 327 332 332 328 331 323 325 336 338 340 338 340 343 344 347 349 350 350 351 352 353 353 354 355 354 354 354 355 355 354 355 355 355 355 355 355 354 354 353 353 352 352 352 352 352 352 352 352 352 353 353 353 352 352 351 351 351 352 351 351 350 349 348 347 348 347 345 345 345 346 346 346 346
311 309 314 312 303 301 297 292 290 290 292 292 291 295 296 299 301 302 302 304 311 327 329 328 326 326 327 329 335 326 337 328 337 338 339 338 342 345 345 347 347 348 350 352 353 353 353 355 354 354 354 355 355 356 355 354 355 355 355 355 354 353 353 353 352 352 352 352 351 352 352 352 352 352 351 350 350 350 351 350 350 349 348 347 348 348 347 347 348 346 345 345 346 345 346 346 346
306 306 306 308 305 302 290 288 288 290 295 297 297 298 301 303 304 303 303 302 325 329 331 328 331 328 324 330 333 336 341 342 338 338 342 341 343 343 344 344 345 346 349 351 352 353 353 354 353 354 354 355 354 355 355 355 355 355 355 354 354 353 352 352 352 352 352 351 351 351 351 351 352 351 351 351 350 350 350 350 349 349 348 348 348 347 347 347 347 345 344 345 346 346 346 345 345
314 301 300 296 293 295 289 289 290 291 293 299 301 300 302 302 303 301 302 300 304 321 327 330 329 327 324 334 324 336 342 343 342 344 343 341 341 341 343 345 345 346 348 351 352 353 356 354 354 353 354 354 355 355 355 355 355 355 354 354 353 352 352 352 352 352 351 351 350 350 350 350 351 351 351 351 350 349 349 349 348 348 348 347 348 347 348 348 347 345 345 346 346 346 345 345 345
303 301 301 295 291 292 288 289 292 295 296 299 301 304 312 307 306 303 301 299 306 324 326 328 327 322 325 328 327 335 339 343 343 344 342 340 340 342 344 345 345 345 348 350 352 352 353 354 353 353 354 355 355 355 355 355 354 353 354 353 353 352 352 351 351 351 351 350 350 350 349 351 351 351 351 351 351 350 349 349 348 348 347 347 347 347 348 348 347 346 346 346 346 345 345 345 345
300 299 293 293 289 289 286 288 287 291 294 298 299 301 302 303 301 300 299 303 311 324 324 332 329 324 329 325 328 333 336 343 343 340 340 340 341 343 345 346 346 346 347 349 350 352 352 355 352 353 353 355 354 354 354 354 354 354 354 353 352 352 352 352 351 351 351 351 350 350 350 351 351 350 350 350 350 350 349 349 348 348 348 348 347 348 349 348 347 346 345 345 345 344 345 345 344
296 299 299 294 290 286 286 287 288 292 294 296 298 300 302 303 301 299 299 301 323 324 328 331 327 327 328 328 327 339 343 343 341 338 340 342 343 344 345 347 347 347 347 348 350 351 352 352 355 353 353 353 353 353 353 353 353 352 352 352 352 352 351 351 351 351 351 351 350 350 350 350 350 350 349 349 350 349 349 348 348 348 348 348 348 348 348 347 346 345 345 344 344 344 343 343 343
294 294 295 288 287 287 287 287 290 293 296 298 298 301 301 301 300 299 300 302 321 325 325 328 325 332 326 327 327 337 342 342 342 343 343 344 343 346 346 346 347 348 348 349 350 350 351 352 352 355 353 353 352 353 353 352 352 352 351 351 351 351 351 351 351 351 352 351 350 350 350 350 349 349 349 348 349 348 348 348 348 348 348 348 347 347 347 346 345 345 344 344 344 343 342 343 342
296 294 291 289 285 288 290 290 292 297 296 296 298 301 302 300 299 299 300 311 305 316 322 328 333 331 323 326 333 339 338 341 344 345 345 344 346 346 347 346 346 347 348 349 348 349 350 350 351 352 353 353 352 352 352 352 351 350 350 351 351 350 351 351 351 351 351 351 350 349 349 349 349 348 348 348 348 348 347 347 347 347 347 347 347 346 347 347 346 345 345 344 343 342 341 342 342
297 294 292 289 289 290 289 290 291 289 291 296 298 299 303 301 302 305 320 320 322 322 329 334 332 332 327 330 332 332 337 343 344 345 346 346 346 346 345 345 346 346 347 348 347 348 348 349 350 350 350 349 350 351 351 351 349 349 350 350 350 350 351 350 350 349 350 350 350 350 349 349 349 348 348 348 347 347 347 346 346 346 346 346 347 346 345 345 345 344 344 343 342 342 340 340 341
298 297 294 291 288 289 289 289 289 289 291 296 299 300 301 304 307 319 322 322 324 332 334 336 333 327 321 326 326 332 337 343 344 346 345 345 345 345 344 344 345 345 346 348 348 347 347 348 348 348 348 348 348 348 348 348 347 346 349 350 349 349 348 349 349 349 349 349 350 349 349 348 348 348 348 347 347 347 346 346 346 345 345 344 345 345 344 344 343 343 343 342 342 341 341 340 341
300 297 295 291 287 288 290 290 293 291 292 295 298 299 300 308 306 315 318 327 326 335 334 322 331 323 329 329 331 337 340 343 345 345 345 343 343 343 343 343 343 344 345 346 346 347 347 347 346 346 347 347 346 347 347 345 346 346 348 348 348 348 347 347 348 348 348 348 348 347 348 347 347 347 349 347 347 346 346 345 345 344 343 343 342 341 341 342 342 343 342 341 340 339 339 339 340
301 299 290 289 288 288 289 290 292 287 294 297 298 299 299 310 325 329 332 332 327 330 332 334 330 335 331 333 338 340 342 344 345 344 343 341 340 340 340 340 341 342 343 344 345 345 346 345 345 345 346 346 345 345 343 342 346 347 345 347 347 346 346 346 346 346 346 345 343 343 341 340 341 344 345 344 347 345 346 346 344 344 343 342 342 341 342 342 342 341 339 340 339 340 339 340 340
300 291 288 286 288 289 292 293 294 296 296 298 299 300 302 306 320 326 331 330 331 331 330 333 336 335 337 339 341 342 343 342 342 341 340 339 339 338 337 338 338 337 339 341 343 344 344 344 344 345 345 344 344 344 343 343 345 345 341 342 343 343 345 346 343 342 344 339 342 339 338 341 338 339 343 346 344 346 345 345 344 343 343 342 342 342 342 341 341 340 340 340 339 341 341 329 332
297 290 288 287 289 294 297 296 297 296 297 298 300 299 304 309 317 316 322 323 326 326 329 331 331 334 337 338 339 340 341 340 340 339 338 337 338 337 336 336 336 337 337 339 341 343 342 341 343 344 344 343 342 341 341 342 340 339 338 339 342 344 345 343 339 342 337 336 337 338 338 336 337 338 342 346 346 346 345 345 344 343 343 343 342 342 341 341 340 341 341 341 342 340 329 327 328
296 293 287 289 295 295 297 298 299 299 298 299 299 300 299 300 305 314 321 322 325 324 324 327 328 329 332 335 337 339 339 339 339 338 337 338 338 338 336 335 335 336 337 339 339 342 341 341 342 343 342 341 340 338 339 339 339 339 338 338 338 339 339 340 338 339 337 336 337 336 336 338 336 335 344 345 345 344 343 345 344 343 343 342 342 341 341 341 342 341 340 339 334 333 328 328 328
294 293 289 292 295 294 298 299 299 300 299 298 299 298 298 300 302 320 323 319 320 323 328 328 328 330 332 334 336 337 337 337 338 338 337 338 338 338 337 336 336 336 338 339 339 338 338 340 341 341 341 340 337 338 339 338 337 337 337 337 337 337 337 337 337 338 337 336 336 336 336 336 334 335 336 341 340 340 338 338 340 338 337 335 342 331 331 335 333 330 328 330 328 329 329 330 330
297 292 295 296 297 295 299 300 301 301 302 298 297 297 298 300 310 321 321 314 316 323 328 331 332 333 332 333 334 336 336 336 337 337 337 337 336 336 337 337 339 339 339 337 336 337 338 340 341 341 341 339 338 338 339 340 336 334 335 336 335 334 336 337 337 337 336 335 335 336 337 335 335 336 337 338 340 339 338 337 337 336 334 334 336 332 332 331 329 329 328 328 329 328 328 330 330
292 296 296 296 297 296 299 300 300 299 299 298 298 299 300 297 299 304 312 309 319 328 332 334 334 335 335 336 335 335 336 336 336 335 335 334 335 336 336 337 337 336 336 334 336 337 336 338 340 340 339 338 338 339 339 337 334 333 334 335 334 334 334 335 336 337 337 336 335 337 335 334 334 333 336 337 337 337 337 337 335 335 333 333 335 332 332 331 329 329 328 328 327 330 332 330 331
296 294 295 297 297 296 299 300 301 300 298 298 300 301 298 298 295 301 311 316 323 331 335 335 335 335 336 334 334 334 335 335 335 336 336 335 336 336 337 336 338 337 334 332 333 335 336 336 339 339 338 339 338 338 336 335 333 333 333 339 335 337 336 335 336 337 338 336 337 337 336 333 333 333 335 336 335 336 335 334 334 333 334 333 335 332 330 328 329 329 329 328 329 330 331 332 333
295 294 296 298 298 298 299 299 299 298 298 299 298 299 298 298 298 310 314 321 330 333 335 335 335 334 334 333 333 333 334 334 331 330 334 335 335 336 337 336 335 331 330 331 332 335 335 336 337 336 337 338 337 337 336 334 333 333 335 334 333 340 333 335 337 336 335 336 336 336 336 332 331 333 333 334 335 334 333 333 334 333 332 332 332 330 329 328 327 330 330 328 326 327 329 330 332
295 296 298 298 297 299 299 298 299 298 299 299 297 297 298 297 300 312 316 322 331 334 334 334 333 332 332 332 332 332 333 333 334 333 333 332 332 333 333 332 332 328 329 332 333 334 333 335 335 335 335 336 336 335 334 333 333 333 334 333 335 338 333 336 336 334 333 334 333 335 336 332 332 332 333 333 334 332 332 332 332 331 330 330 330 330 329 328 329 328 329 329 328 326 329 330 330
295 296 295 295 296 296 298 298 300 299 298 298 296 295 296 296 299 294 310 324 331 332 332 333 332 331 332 332 332 332 332 333 333 332 331 331 331 329 329 331 329 328 330 332 333 332 333 334 334 335 334 337 337 334 334 332 333 332 333 334 337 336 336 336 335 333 333 332 333 334 334 334 332 332 333 333 332 331 330 330 330 330 330 329 328 329 329 328 327 326 327 327 324 323 328 329 329
297 296 296 295 296 297 297 296 297 297 297 297 296 295 295 295 298 293 313 318 330 329 330 330 331 331 331 332 332 332 333 327 327 326 324 326 327 327 327 327 327 327 329 333 333 333 334 334 334 334 334 337 336 334 334 332 332 332 333 335 337 337 337 335 334 332 334 333 334 332 333 333 333 332 333 332 330 328 327 328 330 330 330 329 329 329 330 330 329 328 328 327 327 325 327 328 328
296 296 292 294 295 294 294 295 297 297 296 298 298 297 295 295 294 296 315 320 326 328 328 328 329 330 331 331 331 331 331 325 324 323 325 325 326 327 326 328 327 326 331 334 334 334 334 335 334 334 334 336 334 333 333 333 333 334 334 336 337 337 336 334 333 332 332 333 332 331 332 334 334 333 332 331 332 328 328 329 328 329 330 330 329 329 331 330 329 329 328 329 329 329 328 328 330
298 296 292 292 291 291 294 295 297 296 298 298 298 287 285 291 294 295 311 320 323 324 325 326 327 327 329 330 330 328 323 323 324 324 325 324 325 326 326 327 328 328 332 334 334 333 335 337 336 335 335 333 332 333 333 332 333 334 335 335 336 334 333 333 333 331 333 332 332 332 333 334 333 332 332 330 329 329 329 329 329 329 329 331 329 329 328 328 327 327 327 327 331 325 327 325 326
291 294 294 287 286 285 292 296 296 295 297 297 299 289 286 291 294 296 307 321 321 320 322 324 325 326 327 328 325 321 322 324 324 324 323 324 325 326 326 327 329 330 333 333 333 334 336 336 337 336 335 332 333 332 333 335 336 336 336 334 333 332 332 332 332 332 332 333 333 332 333 334 333 331 332 330 328 328 329 328 328 328 330 330 329 327 327 326 328 325 325 328 326 326 328 329 326
293 289 284 285 286 284 291 295 297 294 296 297 296 289 288 292 295 298 300 320 320 318 321 322 324 324 325 324 321 320 322 323 324 324 324 325 326 326 326 327 330 332 333 333 334 335 334 335 336 334 333 332 332 332 333 334 334 334 334 335 332 331 331 331 332 332 332 332 333 332 331 333 332 331 331 330 328 328 329 328 327 329 330 329 328 328 327 325 325 326 326 326 325 327 330 327 326
289 288 284 286 285 285 289 294 296 296 296 296 295 285 288 291 295 296 300 318 317 317 319 319 322 323 323 320 318 320 321 322 323 323 324 325 325 326 326 328 330 333 333 333 333 333 334 334 334 332 331 331 331 332 331 331 332 332 332 332 331 331 330 330 331 331 331 331 331 331 331 333 332 332 331 331 329 329 328 328 328 329 329 328 328 327 325 325 326 327 324 326 324 324 327 328 327
283 287 286 287 287 286 286 290 294 295 295 292 294 290 288 290 294 297 297 316 315 316 317 317 320 321 321 319 318 320 321 321 320 322 323 324 325 326 327 331 332 333 333 333 332 332 332 333 332 331 331 331 331 331 331 331 331 331 330 329 332 329 329 330 331 330 329 330 331 331 332 333 333 333 332 331 329 330 329 329 329 329 328 328 327 325 325 325 325 325 324 326 327 326 325 327 326
282 284 285 287 288 288 288 288 290 295 294 293 292 291 291 293 294 295 296 311 315 315 316 315 317 318 320 318 319 320 320 320 321 323 324 324 325 326 329 332 332 332 332 332 332 332 332 331 331 332 330 330 329 330 330 329 329 328 328 328 328 326 326 328 330 329 328 330 330 331 333 333 334 333 332 331 331 331 329 329 329 328 328 326 325 324 325 325 325 324 324 324 326 327 325 326 326
288 288 287 286 285 287 287 292 295 295 291 291 291 289 292 294 294 295 296 305 313 313 312 313 316 317 317 317 318 319 319 320 322 323 324 325 326 327 330 331 331 331 331 331 331 331 331 331 331 330 329 329 329 328 328 327 327 327 327 328 326 326 326 328 327 328 328 328 330 331 332 332 334 333 332 331 331 330 329 328 328 328 327 326 324 325 323 323 324 324 324 324 323 325 325 327 326
291 290 289 287 287 288 291 293 294 295 292 290 292 291 293 294 295 295 296 296 307 307 310 312 315 316 316 316 317 317 318 320 323 324 324 324 326 328 329 329 329 330 330 330 330 330 330 330 330 328 328 329 328 327 327 326 326 325 325 325 324 324 326 326 327 327 327 328 331 332 332 333 333 333 332 330 329 333 328 328 328 326 327 326 325 323 323 323 323 324 324 323 322 320 322 324 324
290 289 289 289 290 288 293 293 297 297 292 291 291 291 292 294 295 296 296 296 295 303 309 312 315 315 316 316 316 317 318 322 323 323 324 325 325 326 327 328 329 328 329 330 329 330 330 330 329 328 328 328 327 327 327 327 327 327 325 324 323 324 326 325 325 326 327 330 330 331 332 332 332 331 331 331 331 329 328 326 326 326 326 326 326 325 324 328 325 325 324 321 322 319 320 324 326
291 288 288 287 288 291 294 295 297 298 295 291 292 290 291 293 295 296 295 295 296 305 312 314 315 315 316 316 316 318 319 319 321 322 323 324 325 325 326 326 328 329 329 329 330 330 329 329 329 329 329 328 327 327 327 327 327 327 326 324 325 324 326 326 326 327 330 329 329 330 331 331 331 331 331 331 330 329 328 326 326 326 325 326 325 325 324 324 324 325 323 322 321 320 320 324 324
289 288 286 286 290 289 286 293 296 297 294 291 290 290 291 293 294 293 295 301 306 308 313 315 316 315 316 316 317 317 318 317 318 320 322 324 324 324 325 326 328 329 328 328 329 329 328 328 329 329 329 329 328 328 329 328 328 327 327 326 325 324 323 325 326 326 326 327 328 329 329 329 329 330 331 330 328 327 326 326 324 324 324 325 325 324 322 324 323 324 324 322 321 317 316 319 324
291 292 289 289 289 290 290 291 294 295 295 296 290 289 288 290 291 291 299 310 311 312 314 315 316 317 318 318 318 318 317 317 318 320 321 323 323 323 324 325 328 328 328 328 328 328 329 329 329 330 329 329 329 330 328 328 329 326 325 324 323 323 323 322 323 321 323 326 326 325 326 327 328 328 326 326 327 325 323 322 323 322 322 323 322 320 321 324 325 324 325 323 319 318 317 315 320
288 292 292 292 293 292 292 293 291 288 285 292 288 282 283 285 290 290 298 307 308 311 312 313 314 315 316 316 316 318 318 319 319 320 321 323 323 323 323 325 326 328 327 328 328 328 328 329 330 329 328 328 329 328 327 327 327 324 322 320 319 318 318 319 319 320 319 321 322 321 324 325 324 322 322 323 325 324 321 320 319 320 321 322 320 320 319 319 319 320 324 323 320 318 320 316 316
287 289 294 294 294 293 292 291 290 282 282 290 294 281 280 283 291 293 302 305 306 309 311 312 313 314 315 316 317 318 318 318 320 321 322 323 323 323 323 324 326 327 328 330 329 327 328 329 329 329 328 327 327 325 326 326 324 323 322 321 320 318 318 316 318 319 320 319 320 319 320 321 322 321 320 321 321 322 320 319 320 321 321 321 322 321 320 320 320 320 321 320 321 321 320 315 318
286 291 294 293 293 293 292 291 290 285 290 294 293 286 280 284 287 299 303 304 305 306 309 311 312 313 314 316 318 318 319 319 319 320 321 323 324 324 323 325 326 327 329 330 328 326 326 329 330 327 325 325 325 325 325 324 323 321 320 319 319 318 318 317 319 319 320 321 319 319 320 319 318 318 318 319 320 320 318 318 320 320 321 321 322 320 319 319 321 321 321 320 321 320 319 320 317
289 293 295 293 293 293 293 290 287 287 290 284 285 291 283 280 288 299 303 301 302 304 307 309 311 312 313 315 317 318 319 319 319 319 320 322 323 324 324 324 325 326 327 329 328 327 327 330 330 328 325 324 324 325 326 323 322 320 319 318 318 318 318 319 320 321 320 319 317 317 317 316 317 316 317 317 318 319 319 318 319 320 320 320 321 318 317 318 317 318 318 319 319 318 319 318 318
293 295 295 295 295 294 292 288 286 287 285 278 283 289 282 279 284 290 295 301 301 303 306 308 310 311 312 314 317 319 320 319 319 319 320 322 323 324 324 324 324 325 326 328 328 328 329 330 329 328 325 324 325 325 325 323 322 321 319 319 319 318 319 319 319 318 318 317 316 314 315 315 315 315 316 316 315 315 317 319 319 318 317 319 319 316 316 317 317 317 316 316 316 315 314 317 316
295 295 293 291 291 290 289 288 286 284 280 280 286 292 287 281 286 291 291 295 303 304 305 307 309 311 313 314 316 318 319 320 320 320 321 322 324 325 324 323 323 324 326 327 327 328 330 330 328 325 323 324 325 326 325 323 321 321 321 320 319 318 318 318 318 317 317 315 314 314 314 314 314 314 315 316 316 317 318 320 317 316 317 320 318 317 317 316 315 315 315 315 314 313 312 312 312
295 292 288 287 286 286 287 284 285 278 272 278 287 290 289 282 283 291 297 298 307 306 305 307 308 310 311 312 316 318 319 320 320 321 320 321 322 323 323 322 323 324 325 326 326 327 329 329 327 323 322 323 324 322 321 321 321 322 322 320 319 319 319 318 318 317 316 314 314 313 312 312 312 312 312 312 313 315 316 315 316 315 316 315 315 315 315 316 315 315 314 314 313 312 312 312 310
292 290 286 282 277 278 276 278 278 275 276 284 287 290 287 283 287 296 301 300 307 309 309 308 309 309 310 313 315 317 319 320 321 321 320 320 320 321 321 322 323 324 325 325 326 327 328 329 327 323 322 322 322 319 319 319 321 322 320 319 319 320 319 319 319 317 316 315 313 312 311 311 310 311 310 313 311 312 313 313 313 314 314 315 315 315 313 313 313 313 313 312 312 311 310 310 310
288 286 283 281 277 276 271 272 273 277 282 286 287 291 283 287 294 301 301 304 309 309 308 309 310 309 311 313 315 316 318 320 321 321 320 320 320 321 321 322 323 324 325 325 325 326 328 328 325 322 321 320 320 319 318 318 319 320 319 319 320 320 319 319 318 317 317 316 314 312 312 311 310 310 312 312 311 312 312 313 314 313 313 314 314 312 312 311 311 311 311 310 310 309 311 310 309
288 288 289 284 278 278 274 277 275 275 277 281 289 285 280 284 289 301 303 305 308 309 309 310 310 311 313 315 316 316 318 320 321 320 320 320 321 320 321 323 324 324 325 325 325 326 326 326 323 321 321 320 319 317 317 317 318 319 320 319 319 319 319 318 317 318 318 316 313 313 312 311 311 312 312 311 313 312 312 311 311 312 313 313 312 311 313 310 310 311 311 311 310 310 311 311 309
288 291 290 285 283 282 280 277 278 280 279 280 281 282 289 289 299 304 305 308 307 309 308 309 310 313 315 316 315 316 317 318 319 319 319 321 322 322 322 322 324 325 325 326 326 326 325 324 322 321 321 320 319 318 316 316 318 319 319 318 318 319 320 318 318 318 318 316 314 314 313 312 313 313 311 311 311 311 311 311 312 312 311 311 311 310 310 311 309 310 309 310 311 313 310 309 308
287 289 283 288 292 289 279 283 286 279 279 278 280 285 292 297 300 302 304 307 307 309 309 310 310 312 314 313 313 315 317 318 318 318 319 320 321 322 322 322 323 324 324 325 326 326 324 323 323 321 320 319 320 318 318 317 319 319 319 318 318 318 318 317 317 317 317 316 316 315 314 314 315 313 313 312 312 311 310 311 312 311 311 311 310 310 310 309 308 309 309 308 309 309 311 308 308
289 286 286 293 295 292 286 279 280 277 275 275 282 282 285 286 284 299 301 304 304 307 308 310 310 311 312 311 311 313 315 316 316 316 318 319 321 322 322 323 323 323 323 324 325 326 325 324 323 322 321 320 320 320 319 318 319 319 319 318 318 319 319 318 318 317 316 316 315 315 316 315 314 314 315 315 312 311 312 316 310 309 309 310 309 309 309 308 309 308 308 308 309 310 310 310 309
292 290 295 290 279 282 282 282 275 276 275 275 279 285 284 284 286 294 296 299 301 302 306 308 309 310 310 310 309 309 310 311 312 314 316 318 319 320 320 321 322 321 322 321 322 323 323 323 324 323 322 322 321 322 321 320 320 321 321 319 318 318 319 318 318 318 318 317 315 316 316 315 315 316 316 315 315 315 313 310 309 309 311 310 309 310 310 310 309 309 310 310 309 309 308 308 307
295 297 293 296 287 281 280 280 281 281 276 274 277 282 278 291 289 296 295 298 300 301 303 304 306 309 310 309 309 309 309 310 312 313 315 317 318 319 319 319 319 319 319 320 321 321 321 322 323 322 322 321 321 321 319 319 320 321 321 320 319 320 320 320 318 318 318 317 317 316 316 316 316 316 315 317 316 314 312 310 312 312 311 310 311 311 311 310 310 309 309 310 308 308 308 308 308
289 289 286 289 289 292 289 288 283 277 277 274 276 277 281 289 299 299 299 299 301 302 302 302 304 308 310 311 311 311 312 312 313 314 315 316 317 318 319 320 319 318 320 320 320 320 319 319 321 321 320 320 319 318 319 319 320 321 321 321 320 320 320 319 319 319 318 317 317 317 317 317 317 316 317 317 316 315 314 313 313 312 311 311 310 310 311 310 310 308 308 308 309 308 308 307 308
290 287 287 287 285 284 281 279 287 285 279 278 277 274 283 295 304 301 300 303 304 306 305 304 305 307 308 309 310 311 311 312 312 313 314 315 316 318 319 319 319 319 319 319 320 320 320 319 320 321 321 320 319 318 317 318 319 320 320 321 321 321 320 320 320 320 319 317 317 317 318 318 317 317 318 317 316 316 316 315 313 313 312 312 311 311 312 312 311 311 310 312 308 307 308 307 307
Wind_Speed
4 1 2 2 2 0 1 1 1 2 1 5 3 3 6 3 9 8 13 6 6 2 4 7 5 3 5 8 14 9 10 2 2 4 3 1 4 11 13 13 13 13 14 12 10 10 11 14 17 18 18 19 19 19 18 20 19 20 21 19 18 18 17 17 16 15 15 15 15 15 16 17 16 15 13 13 13 15 16 17 16 17 17 17 16 16 16 15 14 13 13 13 12 12 12 12 12
1 1 2 1 0 1 1 2 1 1 1 3 10 1 6 3 1 5 7 7 3 2 2 8 13 16 17 15 14 11 12 9 4 5 6 7 11 9 12 14 14 16 13 11 10 10 9 12 18 18 18 20 19 19 19 19 19 20 20 19 18 17 17 17 17 16 15 15 15 15 16 16 16 14 13 12 12 12 13 13 15 16 16 16 15 15 15 15 14 13 12 12 12 11 11 11 11
1 2 2 2 1 1 0 1 0 1 2 8 6 8 3 6 4 5 10 12 6 7 6 4 5 4 5 2 10 5 3 5 13 9 7 9 13 7 11 10 12 14 14 10 10 10 8 11 17 18 18 19 19 19 19 19 19 19 19 18 17 17 17 17 17 17 16 15 15 15 15 15 15 14 12 12 12 13 12 12 13 14 14 14 14 14 14 14 13 12 11 11 10 11 11 11 11
3 2 2 1 1 1 1 1 2 5 4 6 6 5 6 5 11 10 13 14 3 11 3 3 5 6 5 14 9 11 8 3 4 10 7 6 6 10 10 12 11 11 10 9 10 10 8 13 17 17 18 18 18 18 19 18 18 18 18 17 17 16 15 14 16 16 16 15 15 15 14 14 14 13 12 12 12 11 12 12 11 12 12 12 14 13 14 13 13 12 11 9 10 10 10 11 11
2 1 2 1 2 0 1 3 3 4 9 4 6 6 4 4 7 7 9 11 4 6 3 5 5 4 6 6 1 1 4 8 8 5 6 5 11 12 13 12 11 10 10 10 10 10 10 17 16 16 17 17 18 18 17 17 17 18 18 17 17 16 15 15 15 15 16 16 15 14 14 13 14 14 13 12 11 12 13 14 13 12 12 12 12 12 13 12 12 11 10 9 9 10 10 11 11
4 1 0 1 0 1 1 1 3 7 6 1 4 7 1 4 8 10 9 4 4 8 11 3 7 3 5 3 1 4 11 7 8 4 9 9 12 15 14 12 11 10 10 9 10 9 10 16 16 16 16 17 17 17 18 18 18 17 17 17 16 16 15 14 14 15 16 16 14 14 14 15 15 15 15 15 14 14 14 13 13 13 13 12 12 13 13 13 12 10 9 9 10 9 9 10 10
1 2 1 1 2 1 3 2 6 7 9 4 7 10 10 14 13 10 14 4 4 7 1 11 16 10 8 1 5 4 4 11 8 7 8 13 14 13 13 11 11 10 10 9 8 10 13 16 16 16 16 17 16 17 18 17 18 18 17 17 16 16 16 15 14 14 15 14 14 15 15 15 15 15 15 15 14 14 14 13 14 13 12 10 10 12 12 12 12 9 9 9 8 8 8 8 8
0 1 1 1 1 1 2 3 8 4 5 9 7 11 14 15 14 5 13 5 4 4 5 13 7 10 0 3 4 3 7 3 12 12 16 15 13 12 12 12 12 10 10 8 8 9 16 16 16 16 16 16 18 18 18 17 17 16 17 16 15 15 15 15 15 13 12 13 14 15 15 15 15 15 14 15 14 14 14 14 13 13 12 11 10 11 12 13 12 9 9 8 6 7 7 7 7
1 1 1 2 1 0 2 6 8 3 7 6 9 10 13 13 14 11 15 4 2 4 6 8 5 10 3 8 3 4 8 13 14 16 15 16 14 12 10 12 13 10 10 8 8 9 10 15 16 16 16 16 17 17 17 17 16 16 16 15 14 14 14 15 15 13 11 11 13 14 14 14 14 14 14 14 15 14 14 13 13 12 12 12 11 11 12 13 12 10 8 7 6 5 6 6 7
1 1 1 2 2 2 2 8 3 5 3 4 7 11 11 12 10 11 8 4 6 7 1 2 3 11 10 12 7 3 8 15 15 13 13 14 13 12 11 11 14 14 10 8 8 9 8 15 15 15 15 15 16 16 16 16 16 15 15 14 13 13 14 14 12 11 11 10 11 12 14 14 13 13 13 14 15 14 14 13 12 12 11 12 12 12 12 13 12 10 8 6 5 5 5 6 7
0 0 1 0 1 3 7 7 5 8 8 7 9 13 12 16 13 5 5 5 7 8 7 12 11 13 8 4 2 1 7 13 16 14 13 13 13 13 11 10 12 13 12 10 9 8 9 9 15 14 14 14 15 15 16 15 15 14 13 13 13 13 15 13 12 11 10 11 13 14 14 13 13 12 12 14 14 14 13 13 12 12 11 12 12 12 12 12 11 10 9 6 5 4 5 5 6
0 1 1 2 3 5 5 2 5 8 10 10 12 12 7 17 8 4 2 6 4 11 10 4 7 12 8 5 2 3 6 9 11 12 13 13 12 13 12 9 11 11 12 12 10 8 8 8 9 14 14 15 15 16 16 16 16 14 14 13 13 14 13 12 11 11 12 12 13 14 13 13 14 13 12 13 14 14 13 13 12 12 12 12 12 12 11 10 11 10 9 7 4 3 5 5 5
1 0 0 1 3 2 3 4 7 6 7 11 11 10 13 15 9 7 1 7 2 6 1 3 19 2 6 3 1 3 9 5 9 12 13 12 12 12 11 11 12 13 12 11 10 10 9 8 8 9 11 17 15 15 16 17 16 14 13 13 14 14 13 12 12 12 12 13 13 14 14 14 15 14 14 14 14 13 13 12 12 12 12 12 11 11 11 11 10 9 8 7 5 2 2 5 5
3 4 2 3 0 3 4 5 5 6 8 11 10 5 1 2 1 5 7 9 6 2 2 15 10 13 9 6 3 5 6 5 11 12 11 13 12 13 13 12 13 12 11 11 11 10 8 8 8 9 10 10 10 15 17 17 15 13 13 13 15 14 12 11 11 11 11 13 12 12 14 15 15 15 14 14 13 12 12 12 11 11 12 12 12 11 10 9 9 7 7 6 5 3 1 3 6
5 1 1 2 3 3 2 3 3 2 10 10 10 5 5 2 5 4 13 11 8 4 6 2 6 10 8 12 6 8 8 8 11 12 13 12 14 14 14 12 12 11 10 12 11 10 9 9 9 8 8 8 9 9 9 14 16 12 10 13 17 15 12 12 12 11 13 12 13 13 13 14 14 14 14 13 12 11 13 12 11 11 11 11 11 10 9 8 7 6 5 5 4 2 1 2 6
4 2 1 1 4 4 5 3 1 4 9 4 9 6 2 7 2 5 1 9 3 2 0 2 3 2 11 12 15 15 12 11 12 13 13 14 13 12 13 12 11 10 10 11 9 8 9 9 8 8 8 8 8 8 9 8 10 11 11 14 16 14 13 11 13 14 13 14 12 11 11 9 11 11 16 11 12 10 10 8 11 10 10 10 9 8 7 7 6 5 4 4 3 2 1 2 5
1 2 2 2 8 5 4 2 4 5 6 9 9 5 2 4 5 7 4 6 13 1 3 1 1 3 15 3 11 15 12 11 13 14 14 11 11 10 9 9 9 8 7 8 8 8 9 9 9 7 8 9 9 9 7 6 7 12 10 14 13 11 10 11 12 14 12 11 10 10 8 6 6 5 7 7 11 5 9 10 11 10 10 10 9 8 7 6 6 5 4 4 3 1 0 3 5
2 4 5 5 6 10 3 3 3 4 7 12 11 9 2 5 2 3 5 11 10 7 8 3 11 9 8 10 14 13 11 13 13 15 12 10 9 10 10 9 10 9 8 7 7 8 8 7 8 8 8 9 9 7 6 5 6 8 7 6 6 7 7 7 6 5 9 6 9 6 4 4 5 4 5 8 5 6 8 10 10 10 10 9 8 8 6 5 4 4 3 2 1 2 3 2 4
4 2 4 9 6 9 4 2 6 4 9 11 15 7 1 4 4 3 7 2 9 11 6 5 12 10 12 13 14 13 12 11 12 13 13 12 11 12 10 10 9 10 8 8 7 9 7 7 7 8 9 9 10 8 7 7 6 4 4 6 5 6 5 5 3 5 5 5 5 4 4 3 3 3 4 6 6 9 7 9 10 10 9 9 8 7 6 4 2 1 3 5 6 6 3 4 4
5 4 6 8 11 6 4 4 8 3 6 11 14 10 1 4 3 1 5 7 9 11 7 4 10 13 13 13 13 13 11 11 11 12 12 11 11 11 12 11 11 10 10 8 8 6 7 7 8 9 9 10 10 7 7 7 7 6 4 3 5 4 4 4 4 5 5 5 5 4 3 3 3 4 5 9 8 5 5 7 9 10 10 8 7 4 4 2 3 6 7 7 5 3 3 4 5
3 4 6 8 4 3 10 5 5 9 5 6 12 6 7 7 0 3 9 8 1 4 10 14 12 14 13 15 15 12 12 11 11 11 11 11 10 8 10 10 11 10 8 8 7 7 6 8 8 9 9 10 10 8 8 7 7 7 6 5 5 3 3 3 4 4 5 5 5 4 3 3 3 4 3 4 3 4 3 3 4 3 3 3 4 2 2 2 4 2 3 3 3 3 4 4 4
3 4 6 11 7 7 11 8 11 10 13 8 5 3 4 3 5 8 12 11 8 10 10 13 18 18 18 16 13 11 12 11 11 12 12 12 11 10 10 9 9 9 8 9 7 8 7 7 9 8 9 9 9 9 9 8 9 7 5 4 5 2 3 4 4 4 5 4 4 4 3 4 4 3 4 5 4 4 4 3 4 4 3 3 2 3 2 2 2 2 2 1 1 1 2 3 3
5 6 7 10 7 7 5 7 7 6 7 4 9 4 1 5 0 5 7 4 7 10 8 10 16 16 16 15 15 13 12 12 11 11 12 12 12 12 12 11 11 10 8 7 7 7 7 8 8 8 8 9 10 9 8 7 5 4 4 4 4 4 3 4 4 4 4 4 3 4 5 4 4 4 5 5 5 4 4 4 4 3 3 2 1 3 3 2 2 2 1 1 2 2 2 3 3
6 8 6 12 8 10 11 11 11 11 8 9 8 3 2 3 6 1 2 3 9 5 9 12 12 12 13 14 11 14 14 13 10 8 10 12 14 15 13 12 9 9 9 8 6 6 8 8 6 7 7 8 7 7 8 6 6 7 5 7 4 5 4 4 4 4 4 4 3 4 4 5 5 5 5 5 4 3 3 2 3 3 2 3 2 4 4 2 2 1 1 1 1 2 3 3 2
7 8 9 11 10 8 9 9 10 8 8 11 7 7 5 2 1 2 1 6 8 11 11 13 13 13 11 12 12 11 11 10 11 7 4 6 7 9 10 10 10 11 11 11 8 8 6 6 6 6 6 9 8 8 8 6 7 7 4 5 5 6 3 3 5 5 4 4 3 4 5 6 5 5 5 4 4 4 4 4 4 4 4 4 4 2 3 2 2 2 2 2 2 2 3 3 1
5 11 9 10 10 9 10 8 9 7 5 3 4 7 6 3 5 2 5 5 9 13 12 13 14 14 13 12 12 12 12 10 9 9 9 8 10 12 10 10 10 13 5 7 7 5 5 6 8 8 6 8 9 7 7 7 7 6 6 5 5 6 3 4 4 4 4 5 4 4 4 4 5 5 4 4 5 4 4 5 5 4 4 3 4 4 2 3 3 1 2 3 3 2 2 2 1
3 5 5 8 9 7 7 11 14 7 5 4 5 3 5 3 1 1 2 5 12 12 12 12 14 14 12 11 10 8 10 9 7 6 7 7 9 10 8 10 15 12 10 10 9 9 7 7 7 8 7 10 9 9 9 9 6 7 7 6 6 5 5 5 5 5 5 5 4 4 4 4 4 4 4 4 4 4 4 4 4 4 4 3 3 3 2 3 2 2 1 2 2 3 3 1 1
5 7 8 10 10 9 7 6 10 1 3 7 6 7 7 3 1 5 8 4 11 15 13 12 11 11 10 11 12 9 9 7 7 9 11 11 7 10 12 14 9 12 10 11 8 6 8 8 8 7 7 8 10 9 8 8 7 6 7 6 5 5 5 4 4 5 6 4 3 4 4 4 4 4 5 4 5 5 4 4 3 4 4 2 2 3 4 3 2 2 1 2 2 2 2 2 2
5 5 7 9 8 6 3 6 8 4 4 7 7 3 0 0 4 5 11 11 8 14 14 13 11 12 12 12 9 7 7 12 14 16 13 15 14 12 10 11 10 6 3 6 7 10 11 9 9 8 8 8 11 10 8 6 6 6 6 5 5 6 6 5 5 5 4 5 4 4 4 4 3 4 4 5 4 5 4 4 3 3 3 3 2 3 3 2 2 2 1 2 2 2 2 3 4
6 5 2 8 7 7 7 3 5 5 3 10 5 4 5 7 8 5 9 11 10 9 11 10 8 7 9 8 8 10 10 13 15 14 13 13 15 14 11 3 3 2 5 6 9 10 9 7 6 7 8 8 10 9 7 6 6 5 5 5 6 6 6 6 5 4 4 4 5 4 3 4 4 4 5 4 5 5 5 5 4 4 3 3 3 3 3 3 2 2 1 2 2 2 3 3 5
3 6 1 4 4 6 3 1 2 2 4 8 6 6 7 8 10 9 9 13 15 12 11 9 8 7 6 6 10 11 12 13 14 14 12 10 9 10 13 12 9 6 5 9 11 12 11 9 8 7 9 9 9 8 8 7 6 6 6 5 5 5 5 5 4 4 4 3 4 4 4 4 4 4 4 6 5 5 5 5 4 4 4 3 4 2 3 2 3 2 2 2 1 2 3 4 5
1 4 6 4 3 7 8 4 2 6 2 3 5 5 7 8 10 12 9 14 16 13 10 10 10 9 8 9 11 15 12 10 12 12 12 14 13 11 13 13 14 12 9 10 10 10 11 10 11 9 9 10 9 8 7 7 7 6 5 6 5 5 5 5 4 4 4 4 4 4 3 4 4 4 3 4 5 4 4 4 4 3 3 3 3 2 1 2 2 2 1 3 3 2 4 4 4
2 4 4 6 3 5 6 5 5 8 3 0 6 5 3 6 11 11 6 16 13 12 11 11 11 11 12 11 12 13 14 9 10 13 13 12 11 12 10 12 11 11 12 13 12 12 11 11 11 11 11 11 9 8 8 7 7 7 6 5 6 6 6 5 3 3 3 4 4 4 4 4 4 4 4 3 5 4 4 5 4 4 3 3 2 2 1 1 3 2 3 3 4 3 3 4 3
5 0 4 3 4 3 5 7 5 4 5 4 2 4 5 6 7 11 6 16 10 11 12 11 9 10 11 11 11 12 12 11 12 12 12 12 11 9 9 11 14 12 11 12 11 11 10 9 9 9 8 8 8 9 9 7 6 6 5 5 4 5 5 4 4 4 4 4 4 4 4 4 4 5 5 5 5 5 5 5 4 4 3 3 3 3 1 2 3 3 3 3 4 4 4 4 4
3 3 3 7 2 3 8 2 4 1 3 7 5 5 7 12 9 7 6 15 15 13 13 10 11 13 12 12 13 12 11 12 12 13 16 11 9 9 10 11 12 13 10 12 12 11 10 8 7 8 9 8 7 7 7 6 6 5 4 3 3 3 2 2 3 3 2 3 3 4 5 5 5 6 6 6 6 5 5 5 5 4 5 4 4 3 3 3 3 3 4 3 3 4 4 4 4
5 4 3 3 5 7 6 9 5 3 3 6 8 6 11 16 11 8 4 10 14 12 7 8 10 11 12 13 12 11 11 11 10 12 11 8 9 11 10 11 12 11 10 11 11 11 11 10 8 7 8 8 7 6 6 6 5 6 6 4 3 1 1 2 2 3 4 4 4 4 5 6 5 5 6 6 6 6 5 5 5 4 4 4 4 4 3 3 3 4 3 4 3 3 4 5 4
5 5 4 5 5 7 6 7 6 2 2 9 11 10 14 13 14 11 9 6 10 11 14 12 10 11 13 13 11 10 11 12 9 9 9 10 11 11 10 11 12 11 13 14 13 12 12 11 10 10 8 8 8 8 8 8 7 5 4 5 5 3 3 3 4 4 4 5 4 3 3 5 5 5 5 5 5 4 4 4 4 3 3 3 3 3 3 3 3 3 3 2 3 3 2 3 3
6 8 7 9 7 9 9 6 3 4 4 8 9 11 16 15 13 13 7 7 8 14 14 15 14 12 13 15 14 12 9 7 9 8 8 8 9 9 10 9 10 13 10 12 14 14 12 11 12 11 9 8 8 9 8 7 6 7 7 5 4 5 5 5 5 4 4 4 3 3 5 5 6 5 4 4 4 4 4 3 3 3 3 3 2 2 3 3 3 3 4 3 1 3 1 2 5
7 6 7 6 9 8 9 7 4 2 3 9 7 12 15 15 14 12 8 6 4 16 20 21 20 17 14 13 12 11 11 12 10 9 10 10 10 11 10 9 10 11 13 11 10 12 11 10 9 10 8 8 7 6 7 7 5 5 5 4 6 4 1 1 3 3 3 5 4 4 5 5 5 5 4 4 5 4 4 4 3 3 3 2 2 2 2 3 3 4 4 5 2 1 2 1 1
5 4 4 8 7 3 8 8 1 4 2 7 6 12 12 11 9 4 6 5 3 7 18 17 20 20 19 15 14 15 15 15 15 14 13 10 10 11 8 8 8 8 8 8 7 9 9 8 8 8 8 6 6 6 6 6 7 4 4 6 3 2 4 3 3 3 3 4 4 5 5 5 5 4 4 3 3 4 4 4 3 3 3 2 4 4 3 3 3 3 4 3 5 3 1 2 2
6 8 8 9 4 4 5 7 6 6 9 3 4 4 3 4 6 0 8 10 13 11 15 13 9 12 13 12 10 13 16 15 14 14 13 12 12 11 10 9 8 9 8 7 7 7 6 7 7 7 7 7 6 6 5 5 6 6 6 4 3 5 5 5 5 3 3 3 4 4 4 4 4 4 3 3 3 4 3 3 4 3 3 2 2 3 4 4 4 4 5 4 4 5 2 2 1
6 6 10 9 4 4 7 6 6 7 7 2 5 3 5 3 2 4 4 9 11 7 17 14 14 14 13 13 13 11 11 13 16 17 18 17 14 10 8 9 9 8 7 5 5 5 6 7 7 5 5 5 5 4 4 6 7 8 8 7 7 5 6 6 7 6 4 4 4 2 4 4 4 3 3 3 3 3 3 3 3 3 4 4 3 4 3 3 2 3 4 5 4 3 5 4 2
5 6 8 6 5 2 4 8 4 4 1 6 2 5 1 4 4 7 7 11 12 7 15 14 14 12 11 12 11 11 11 9 7 11 12 14 11 10 10 10 9 9 6 6 5 4 5 5 4 4 4 4 3 3 4 5 7 7 7 7 7 7 7 3 3 4 5 4 5 4 4 3 4 5 3 4 4 4 4 3 4 5 5 5 3 5 5 4 3 2 2 3 4 5 5 4 6
6 4 4 4 1 4 5 5 1 6 3 6 3 2 4 1 5 7 9 13 11 12 14 16 14 14 12 12 13 12 13 13 12 15 15 11 9 10 11 11 9 8 7 7 5 4 5 4 4 3 2 2 2 2 2 4 8 7 7 6 6 7 6 6 5 4 4 5 6 6 5 4 3 4 5 4 4 4 4 4 5 4 5 4 5 5 4 3 3 3 3 3 3 3 5 7 5
5 4 6 4 4 5 6 4 7 4 1 9 7 4 5 1 0 2 15 13 6 11 14 13 13 13 13 13 14 14 12 11 11 12 13 12 11 9 9 10 8 8 7 8 6 5 4 5 4 3 2 2 2 3 3 3 7 8 8 7 6 4 6 6 4 5 6 6 7 5 6 4 4 3 4 5 4 4 3 5 5 5 5 4 5 5 3 4 4 4 4 5 4 3 2 2 4
7 6 2 2 1 3 4 4 4 2 1 4 3 2 1 1 1 4 4 11 9 10 9 11 13 12 12 12 12 11 9 8 7 3 5 6 7 9 7 8 9 7 6 6 6 5 5 5 5 4 3 3 3 3 4 4 6 7 8 7 8 6 6 5 5 6 6 5 6 5 5 5 5 5 4 4 5 4 5 5 6 5 5 4 4 4 5 5 4 4 4 4 4 5 2 3 3
2 2 1 3 0 2 1 3 2 3 3 6 5 1 3 1 1 2 7 6 13 8 4 3 5 5 7 10 13 15 11 9 7 8 8 8 8 8 8 9 8 7 6 7 6 6 5 6 5 5 4 3 4 4 5 7 6 7 8 8 9 9 8 7 7 6 6 6 7 5 6 5 4 5 5 4 4 4 5 5 5 4 4 4 5 5 5 5 4 4 4 5 5 5 5 5 5
3 2 3 1 6 2 0 2 2 3 3 6 6 5 5 3 2 3 4 1 15 18 17 17 14 12 11 9 8 10 11 8 7 9 11 10 8 8 7 9 9 8 8 7 5 5 5 5 5 5 4 4 4 3 3 5 5 5 6 8 9 9 9 8 9 8 7 7 7 6 5 6 4 5 4 5 4 4 6 5 4 4 5 5 6 5 4 4 4 4 4 5 4 4 4 6 5
2 1 2 2 3 3 2 1 1 2 4 2 3 7 2 1 1 4 7 6 14 15 18 18 15 12 9 9 10 9 8 8 9 9 10 11 11 10 9 9 9 9 9 9 9 7 6 6 6 5 4 3 3 3 3 3 5 5 6 8 8 8 8 8 8 7 6 7 7 7 6 6 6 6 4 6 3 4 5 6 6 6 5 5 5 5 4 4 4 4 4 4 4 5 5 6 6
2 2 4 3 2 1 1 2 1 1 5 6 4 0 1 1 2 3 6 6 18 12 6 5 8 8 8 9 9 9 9 11 12 10 11 11 11 10 9 9 9 8 10 11 10 9 7 7 6 4 4 3 2 3 3 4 4 4 5 6 7 8 8 8 7 7 6 7 6 7 6 6 6 5 5 5 4 4 4 5 6 6 5 5 5 5 5 4 4 5 4 5 4 3 5 6 6
6 2 9 8 6 3 2 1 1 4 6 3 4 3 2 4 3 5 8 2 3 1 5 10 8 8 6 7 8 10 11 12 12 12 10 9 10 9 9 9 8 8 10 10 9 9 7 7 6 5 4 3 3 3 3 4 4 4 4 4 6 5 7 7 7 7 7 8 6 7 6 5 6 4 6 4 3 4 4 5 6 6 6 5 5 5 5 4 4 4 4 4 4 4 6 6 5
3 2 4 4 6 6 3 4 4 1 1 2 4 1 0 3 2 5 3 6 5 3 4 6 9 9 10 10 11 11 11 10 8 7 8 10 12 12 10 9 9 9 10 9 9 8 8 7 7 7 6 5 5 4 3 3 4 2 3 5 5 6 6 6 6 6 6 7 7 8 6 5 5 5 3 4 3 4 4 5 5 6 5 5 5 5 4 4 4 4 3 4 5 3 7 6 4
3 3 3 8 6 9 4 1 1 6 3 1 0 3 4 1 4 6 5 6 4 4 5 8 8 9 6 6 7 8 7 7 6 8 9 10 10 11 12 12 10 10 8 8 9 10 11 10 9 8 6 4 5 4 4 4 5 4 4 5 5 6 7 7 7 7 7 6 7 7 7 5 5 5 4 4 4 3 4 4 5 5 5 5 5 4 4 4 3 3 4 4 5 4 6 5 4
2 1 5 1 5 5 5 4 1 3 2 4 1 4 3 1 1 3 6 3 3 5 5 5 5 4 6 5 5 6 6 4 5 6 6 7 6 9 10 10 10 9 8 9 9 8 9 10 10 9 8 7 5 6 4 4 4 4 5 6 5 6 7 7 7 8 7 7 6 6 6 6 6 5 5 3 4 4 3 4 5 4 4 4 5 4 4 4 4 3 3 3 3 4 5 4 4
9 5 3 1 1 2 4 5 1 2 1 2 3 0 2 2 1 3 2 1 0 3 4 6 5 4 5 5 3 1 1 3 5 6 7 7 6 6 6 6 7 7 6 4 4 4 6 7 9 10 9 7 5 5 4 3 3 4 5 6 6 6 6 6 6 7 7 8 7 7 7 7 5 5 5 5 4 3 3 4 4 4 4 4 4 4 4 4 4 4 3 3 3 5 5 4 3
3 2 1 1 5 3 2 3 5 7 4 2 2 1 2 2 2 5 6 4 3 0 3 4 3 2 2 1 1 0 1 3 4 5 6 7 7 7 8 8 8 8 8 7 6 3 4 6 10 9 9 8 6 4 3 3 3 4 5 6 5 6 6 7 7 8 7 8 8 7 8 7 6 5 5 5 5 4 4 4 3 4 4 4 4 4 4 4 3 3 3 4 3 5 5 4 3
4 6 3 4 2 2 5 1 2 4 6 5 5 1 1 2 3 5 6 1 6 8 4 2 3 4 6 7 6 7 7 6 6 4 5 7 8 8 8 8 10 9 6 7 6 5 3 2 7 10 11 9 8 7 7 8 8 7 2 7 6 6 7 7 8 8 8 7 7 8 7 7 5 4 4 4 4 5 4 4 3 3 4 4 4 4 3 4 4 3 3 4 3 4 4 3 4
3 5 2 2 2 4 4 3 2 2 4 3 4 3 1 2 5 3 3 7 7 6 7 6 7 9 8 8 9 9 6 9 7 6 3 5 7 7 7 7 9 8 6 5 7 6 5 3 4 8 10 10 10 8 7 7 9 7 2 0 6 5 6 7 9 8 8 6 6 6 6 6 6 4 4 4 4 4 3 4 4 4 4 4 4 4 4 4 5 4 4 3 3 4 4 3 3
Wind_Direction
192 87 78 83 76 96 70 25 92 298 84 244 251 223 249 217 245 291 272 302 307 350 345 16 38 67 113 118 113 82 20 107 247 142 207 186 115 116 119 122 129 129 133 138 137 136 138 135 131 128 127 127 129 131 131 130 125 123 121 121 123 124 122 121 119 118 116 116 115 116 116 117 117 117 116 113 114 118 120 117 112 110 110 110 110 108 108 107 103 100 100 98 95 91 90 87 85
127 93 83 113 191 94 265 140 103 5 41 328 244 140 244 232 206 232 255 244 203 121 23 77 76 82 98 114 126 99 44 37 40 95 83 99 100 104 123 132 138 133 135 138 134 134 139 137 132 130 130 130 131 134 133 130 126 125 124 125 126 125 124 124 123 122 121 120 119 118 118 119 120 118 116 113 110 106 105 110 113 113 114 114 110 108 106 104 103 102 98 96 92 89 87 84 82
136 89 33 64 18 125 2 52 218 158 126 241 260 213 318 315 242 257 247 244 194 134 198 80 81 67 86 114 45 49 113 80 88 75 88 119 106 123 126 123 129 129 134 134 132 134 136 140 135 133 132 132 135 136 134 131 128 127 127 127 127 125 125 126 126 123 123 121 119 118 118 119 120 118 109 110 109 108 109 108 112 113 113 110 110 109 106 105 104 103 100 95 89 85 80 78 76
94 73 115 74 346 3 74 44 104 136 186 231 310 251 237 240 259 248 251 260 119 147 207 9 40 320 98 68 94 80 108 108 78 124 123 142 128 128 116 118 122 121 125 132 132 133 136 140 136 133 133 134 135 136 135 131 130 129 129 127 126 125 124 123 123 121 120 119 117 117 119 119 117 113 104 108 111 113 116 114 110 109 108 112 111 108 108 106 105 104 99 91 86 83 78 73 71
86 21 109 87 108 330 107 196 172 123 226 166 226 270 238 241 277 288 254 253 191 137 129 145 82 337 50 94 148 126 142 124 126 109 106 93 127 127 124 122 122 124 128 130 129 132 138 140 136 135 135 136 137 137 134 132 131 130 129 126 125 125 124 122 120 118 117 118 118 116 116 116 116 111 103 93 89 92 99 95 91 87 82 82 98 110 109 108 107 105 96 91 88 81 76 72 66
63 54 337 94 146 215 32 326 271 223 235 130 271 260 291 281 291 298 300 23 110 149 142 119 133 181 38 1 19 105 145 140 134 109 127 136 131 130 128 126 122 124 127 129 133 133 138 140 138 138 138 138 138 135 134 134 131 130 127 125 124 125 125 120 119 116 116 119 119 118 117 116 108 105 102 98 90 87 88 93 96 96 94 97 111 116 112 110 109 101 96 93 85 78 73 69 64
143 68 12 24 330 90 154 204 251 244 256 209 249 282 299 295 285 299 293 337 48 62 162 116 119 108 82 97 28 5 94 121 122 152 135 135 130 130 130 122 117 120 128 131 132 131 140 142 142 141 141 139 137 135 136 134 131 128 126 125 125 125 123 119 116 116 115 119 121 119 116 112 106 104 100 97 96 92 93 95 99 100 100 98 106 113 114 113 110 102 99 92 81 74 69 61 53
118 114 233 108 261 87 261 230 253 194 273 192 242 257 265 267 278 283 277 252 235 124 123 137 131 97 121 2 116 322 94 99 118 118 123 128 132 130 125 124 118 122 126 128 127 134 143 144 144 144 142 139 138 137 137 133 129 126 126 125 125 125 123 118 116 113 117 122 122 120 118 113 109 108 105 105 104 105 103 105 106 105 104 104 100 106 110 111 107 106 100 94 83 66 55 47 43
8 90 307 75 306 342 305 252 255 231 262 255 259 259 277 279 284 277 271 248 60 75 147 152 176 87 194 87 67 102 92 111 112 124 127 130 133 132 128 129 125 125 122 125 129 135 139 148 146 144 140 138 138 139 136 131 125 125 124 125 126 124 119 117 116 117 121 123 121 119 119 114 110 110 110 110 108 109 111 110 109 109 107 105 107 109 114 109 106 105 99 89 76 59 41 34 30
19 103 260 168 139 255 275 270 249 247 251 255 258 265 265 269 271 257 217 81 144 121 61 29 62 113 134 101 113 88 119 122 124 120 128 130 130 128 127 126 123 122 123 125 129 133 144 149 146 140 136 136 137 136 131 125 124 123 124 125 124 120 114 114 117 122 124 121 118 118 118 117 113 114 117 117 115 112 110 109 109 108 109 111 112 116 118 110 110 111 106 87 68 41 27 24 18
302 339 180 35 344 241 245 268 265 299 282 284 272 253 249 261 249 235 210 126 154 131 109 98 75 118 112 90 46 306 123 125 127 134 136 131 127 126 119 117 119 123 126 125 126 133 142 143 138 132 133 132 131 131 130 127 124 122 122 126 124 116 115 117 124 127 124 120 121 121 121 118 116 117 120 121 116 113 110 110 111 110 109 111 116 119 115 114 112 109 105 89 55 22 14 12 5
8 217 86 137 212 190 244 226 275 281 287 283 274 259 231 240 246 206 217 111 171 136 148 149 153 122 82 118 111 112 116 114 122 134 134 130 127 120 117 115 114 117 122 126 129 130 132 138 132 135 132 133 132 132 127 123 121 122 128 132 123 116 118 125 127 121 114 113 120 122 123 121 119 116 114 113 113 114 113 112 115 114 112 113 116 118 116 114 110 108 112 112 85 25 353 350 350
163 220 82 104 236 173 256 285 270 292 289 279 265 275 232 217 207 196 88 66 64 119 123 181 138 125 115 137 43 103 111 120 120 127 130 128 120 114 112 114 115 120 124 127 127 129 129 126 133 131 136 134 129 125 122 122 124 130 140 134 119 118 122 123 124 117 114 111 120 127 125 121 116 116 115 112 113 113 115 116 116 115 115 111 107 109 112 110 109 113 119 119 120 109 346 321 333
167 182 129 260 291 258 273 262 272 288 285 272 286 270 98 136 266 106 87 46 32 99 138 136 124 112 95 107 117 134 141 142 121 122 124 122 118 117 116 117 120 123 127 129 130 129 122 124 126 132 133 129 127 125 122 122 127 142 141 124 119 121 120 122 122 115 109 112 114 118 123 121 118 117 115 113 113 110 111 114 113 115 114 113 110 109 114 118 112 116 122 129 131 147 201 300 308
205 196 133 181 291 320 221 245 246 317 282 285 279 10 330 41 90 103 108 103 57 68 91 45 150 101 194 155 177 173 163 146 121 119 120 120 116 117 118 119 122 124 127 130 129 128 124 123 127 127 124 123 117 119 124 130 140 145 129 123 125 121 123 123 123 117 116 117 119 117 120 120 119 117 115 114 114 117 119 115 114 116 121 121 121 117 115 112 113 122 132 126 130 141 265 298 301
193 145 185 202 264 233 268 234 44 256 268 282 278 321 3 12 46 93 292 129 157 10 255 176 297 191 172 179 163 156 156 138 125 120 119 118 115 112 114 118 121 125 127 133 128 122 123 126 128 124 118 115 113 118 124 129 139 132 130 126 128 126 133 120 119 118 124 125 103 103 107 114 122 125 121 120 121 120 118 118 122 124 123 120 118 121 127 132 142 144 137 135 140 155 221 302 298
224 168 266 237 275 240 254 175 210 241 269 296 293 343 97 53 22 42 6 87 108 97 91 336 270 74 146 125 136 134 140 133 125 123 119 122 123 120 118 118 120 123 126 127 128 125 124 130 129 120 115 110 109 110 111 113 128 130 120 125 118 122 131 126 119 121 117 110 98 96 91 79 84 109 117 120 122 124 125 127 128 126 121 121 120 126 130 138 146 150 155 154 150 151 179 300 298
169 205 202 241 235 257 191 204 257 289 300 295 323 328 84 103 97 140 59 43 79 70 60 41 47 57 101 110 120 127 134 132 131 128 131 132 131 131 130 130 131 133 134 128 123 123 129 130 124 114 110 106 107 107 109 116 115 114 110 101 110 126 128 122 114 113 107 93 100 93 86 91 90 95 108 120 132 133 130 130 127 123 121 121 129 132 140 149 159 162 154 135 75 30 3 343 311
184 204 166 228 219 234 93 231 250 276 292 318 306 308 323 128 136 182 88 119 97 71 36 44 82 79 97 109 122 128 137 137 136 134 141 144 139 138 135 134 133 131 135 132 129 134 133 123 119 114 110 111 103 101 107 101 75 72 83 105 107 118 122 117 117 114 97 106 105 91 80 82 85 72 122 144 137 136 130 128 125 127 127 131 132 141 145 147 153 86 38 18 21 11 6 326 318
216 184 220 235 239 265 272 249 275 296 290 296 296 304 17 334 155 227 127 150 117 121 125 53 108 126 129 129 129 137 140 143 137 139 144 144 140 136 135 136 138 140 141 140 132 129 126 120 113 111 113 114 110 110 110 112 114 95 81 73 101 111 114 110 107 111 111 109 104 102 92 93 83 52 113 138 135 120 124 125 133 134 131 132 140 132 136 147 57 31 30 40 22 1 354 351 345
260 165 215 238 244 302 265 269 267 268 259 274 299 295 359 322 45 118 132 88 19 182 166 152 161 147 142 142 141 142 144 144 146 144 145 144 138 133 131 137 142 141 135 122 121 124 111 114 115 117 124 122 121 124 127 127 123 118 133 122 111 125 142 129 116 109 116 114 118 121 119 110 103 88 86 120 117 112 112 118 119 107 109 114 119 88 62 39 62 43 24 35 34 17 17 351 355
305 214 217 242 257 253 267 264 264 272 273 286 255 28 301 296 77 135 150 145 194 193 207 165 156 149 147 147 147 141 146 150 152 151 149 150 141 133 128 126 121 116 116 118 116 110 104 113 126 131 128 127 130 139 140 133 131 138 132 133 126 161 143 149 119 116 120 126 124 120 114 100 94 84 102 121 122 127 127 130 128 125 116 136 109 114 81 79 66 58 42 42 19 20 335 333 358
248 275 269 261 248 249 270 267 262 254 273 264 297 285 274 346 134 183 223 159 207 205 165 153 151 153 146 140 142 146 149 153 160 158 151 149 140 143 143 138 134 130 113 85 99 109 118 128 133 134 129 131 137 136 122 113 114 98 138 127 145 179 170 143 128 123 124 122 120 133 132 121 121 112 116 129 137 139 139 140 137 128 137 135 95 96 97 103 115 83 37 7 358 21 23 31 360
209 253 255 263 254 245 253 256 257 263 267 269 260 202 128 309 359 211 130 224 174 116 129 135 127 127 131 135 145 150 153 158 166 167 157 154 154 155 146 131 118 104 87 81 110 149 151 140 127 122 123 125 124 112 110 113 129 145 161 146 169 189 163 142 124 132 133 130 143 147 137 134 143 121 119 130 139 133 141 130 116 114 116 114 107 113 115 122 94 91 87 44 26 20 40 44 10
229 251 254 265 269 256 251 240 244 249 252 259 248 261 250 185 266 31 119 123 112 118 123 125 129 131 133 136 144 149 153 157 150 203 160 139 120 109 117 116 97 95 115 150 148 142 133 110 106 109 111 120 126 126 122 132 164 138 164 143 172 181 155 122 124 128 134 138 156 152 145 137 129 119 120 126 127 125 116 107 111 112 115 126 119 115 130 125 75 91 101 103 65 43 40 58 30
227 233 247 259 259 261 257 255 249 222 239 241 278 243 264 199 132 80 162 117 124 130 131 133 135 138 145 150 155 157 162 165 149 164 146 119 112 111 105 94 93 99 123 132 137 129 121 132 127 135 121 125 128 113 120 156 168 142 161 160 175 174 173 117 125 129 134 154 167 154 140 126 125 131 125 131 123 116 105 100 101 113 114 119 113 114 120 108 118 97 89 78 86 76 61 45 67
235 267 249 254 264 271 270 259 257 245 223 198 222 277 278 290 327 215 295 154 134 129 135 143 144 152 153 152 153 158 161 169 144 128 111 105 93 76 64 92 108 134 153 144 164 165 161 145 140 141 129 131 129 126 145 170 146 162 158 163 183 168 159 140 137 138 150 169 167 130 115 124 126 122 126 129 113 113 109 106 107 111 103 95 110 120 102 112 122 122 100 97 83 69 58 48 92
275 260 280 276 274 271 276 275 267 269 245 211 164 213 241 319 213 199 175 203 151 138 147 153 152 151 157 156 155 162 159 66 42 55 51 50 60 85 93 100 121 169 157 166 159 140 139 152 150 148 134 134 131 140 157 163 160 165 161 171 169 149 148 146 148 153 167 158 139 109 101 113 125 125 129 131 126 122 114 113 119 107 117 103 110 116 111 111 120 133 107 76 67 78 65 62 58
269 283 289 286 291 291 267 266 269 225 251 197 201 221 334 312 217 215 170 156 169 150 154 160 162 158 160 160 149 139 85 95 91 91 95 90 78 85 104 141 154 144 179 143 135 137 149 156 155 155 145 139 140 154 165 159 159 161 160 161 143 149 151 160 169 176 163 141 127 111 113 128 127 126 134 134 131 126 122 121 117 125 137 134 130 130 116 111 103 96 45 73 64 57 84 67 67
334 320 253 299 305 292 263 228 248 229 240 190 122 256 265 257 247 244 175 158 157 154 155 160 159 151 156 146 116 85 95 100 102 109 114 121 129 135 133 150 119 224 172 140 135 141 150 156 156 149 147 146 150 156 149 154 162 154 153 149 150 153 159 162 171 168 152 138 129 119 120 130 133 138 139 132 130 128 128 131 132 130 140 138 132 129 130 127 122 111 71 48 64 74 80 67 74
268 277 346 238 309 265 279 225 297 266 227 178 159 220 266 260 266 252 169 163 162 166 164 158 152 147 134 107 107 109 97 107 120 124 121 121 129 152 153 157 152 181 189 144 150 153 154 157 152 150 150 147 154 155 149 152 160 155 154 150 150 149 147 158 168 157 136 126 117 111 120 142 140 146 147 142 140 134 132 134 138 151 143 137 140 146 141 127 139 147 97 85 25 39 65 55 75
284 359 296 314 203 284 288 285 243 254 293 148 133 224 222 240 244 248 165 173 167 165 162 160 153 142 118 114 111 105 116 120 120 120 132 142 153 163 163 166 155 160 170 152 152 154 154 154 153 148 149 150 156 151 146 149 151 151 147 149 142 145 147 161 162 151 135 128 125 121 114 141 145 145 143 141 133 139 137 133 144 138 137 124 130 126 107 126 127 115 126 136 108 80 77 60 62
330 174 260 275 316 278 333 274 204 204 231 215 175 216 278 287 256 251 157 175 175 161 165 168 153 129 120 127 115 122 128 130 125 137 148 154 168 167 166 150 156 158 162 159 156 156 153 152 151 151 154 153 148 142 139 142 142 140 145 146 150 150 152 152 141 124 130 136 127 126 139 147 147 149 154 149 128 132 129 133 143 134 132 125 119 118 92 146 144 120 62 69 113 118 83 86 74
282 341 222 213 245 286 271 295 299 232 204 271 250 205 223 236 247 236 164 174 170 161 170 168 132 110 129 121 122 131 134 135 141 149 159 174 174 156 152 152 151 160 165 150 150 151 150 151 152 153 151 149 147 146 145 143 138 131 132 143 149 152 155 143 136 143 156 152 135 149 163 154 152 154 157 136 127 138 137 137 139 137 136 128 117 106 100 116 110 111 84 40 71 95 102 100 96
217 276 301 302 298 230 245 318 278 314 258 236 253 236 250 248 246 252 207 170 167 177 173 146 120 127 128 123 136 140 137 142 158 161 170 175 149 154 153 147 149 159 163 153 151 142 146 148 147 148 149 146 143 139 133 123 119 111 105 124 137 139 126 118 131 137 142 134 147 167 161 156 149 143 138 135 133 132 128 131 134 144 136 132 120 100 95 96 90 78 104 70 56 91 116 116 121
222 228 213 217 282 286 274 260 261 221 283 261 246 223 239 242 246 250 257 154 171 175 118 104 115 128 124 134 136 140 145 153 165 163 160 154 156 157 156 151 156 157 155 153 148 147 147 149 140 140 148 147 140 136 131 128 130 136 136 120 107 137 90 108 129 150 149 145 164 167 160 140 137 129 129 137 137 139 135 135 133 130 127 119 111 111 111 120 121 93 91 107 82 61 74 111 115
267 294 280 263 261 277 271 269 270 225 236 237 239 233 237 239 236 235 227 149 166 140 135 127 144 131 137 139 145 149 155 162 167 154 158 164 163 161 155 158 160 161 160 157 151 154 155 151 145 149 159 156 152 150 151 149 146 134 123 152 154 146 145 153 147 169 157 160 158 157 135 130 130 125 132 131 125 115 104 106 109 104 116 119 127 156 167 155 145 132 119 100 115 91 61 105 119
235 254 269 276 264 271 265 274 268 246 186 264 233 227 239 235 236 233 224 128 156 157 142 144 147 139 139 140 145 152 145 119 139 152 167 166 163 159 157 159 158 156 168 161 159 156 156 151 152 154 161 163 163 161 154 152 158 162 156 162 143 153 163 166 153 174 155 146 145 147 145 134 123 120 114 110 112 115 120 125 134 145 149 159 165 157 159 156 133 123 125 67 32 131 139 128 172
246 226 256 288 273 266 279 255 229 226 187 262 242 209 234 232 233 233 229 207 183 165 156 160 146 143 138 141 142 138 138 147 159 168 168 173 169 166 166 165 169 168 160 163 155 146 149 155 151 156 163 162 161 156 149 154 161 160 149 145 148 149 197 177 140 153 150 147 155 142 121 106 107 106 117 126 129 137 145 146 154 151 165 166 119 127 139 143 155 151 145 138 114 34 104 57 84
235 262 267 248 250 320 301 284 261 290 179 261 224 206 232 233 240 272 10 60 57 149 148 147 143 144 151 153 151 150 154 156 166 170 172 177 178 172 157 159 165 160 155 154 147 144 144 153 155 157 160 158 157 166 167 161 158 145 117 126 134 126 158 141 109 132 133 126 96 85 84 105 111 122 131 132 122 135 148 158 148 161 178 167 156 155 164 178 172 158 130 138 137 118 71 34 357
238 227 234 243 236 216 212 276 327 302 313 219 159 168 249 284 231 5 28 65 83 99 98 100 108 113 124 140 158 165 162 164 162 165 171 176 183 180 167 159 156 161 159 149 144 140 147 153 156 159 158 164 166 169 171 145 124 108 105 95 91 88 73 98 103 82 91 90 89 97 115 111 117 119 115 125 136 146 150 145 160 176 167 170 131 151 172 193 186 174 156 148 153 144 155 127 109
264 229 202 209 186 239 279 287 4 359 329 342 117 87 209 310 299 111 87 76 83 112 114 122 127 134 151 163 172 174 167 168 162 169 177 183 182 163 148 155 160 156 151 134 122 131 142 143 151 155 155 165 165 167 162 145 144 139 143 144 135 130 125 129 137 146 134 129 144 98 81 99 106 103 112 132 146 149 139 149 144 129 115 113 122 108 109 98 97 143 180 163 155 160 142 124 115
228 264 201 199 190 221 286 302 31 316 327 282 106 135 227 334 80 93 119 98 99 113 119 134 139 152 162 166 165 164 166 170 189 169 172 178 178 161 148 155 156 149 136 124 125 124 125 129 142 157 162 162 144 158 169 143 139 148 155 149 141 140 135 141 132 135 128 106 107 109 115 109 117 124 133 115 104 115 137 135 100 92 109 121 120 101 92 106 121 119 127 129 146 143 128 125 150
232 236 187 192 175 267 269 282 256 239 245 285 31 122 128 18 358 133 99 99 117 128 143 149 159 163 167 166 170 170 176 177 170 179 180 174 172 165 149 146 150 141 125 133 129 112 119 117 122 123 110 118 133 133 154 152 144 147 144 140 140 137 139 149 148 121 98 107 101 114 118 117 114 121 103 88 93 95 117 107 100 101 105 116 108 104 114 120 97 71 73 91 108 124 143 142 162
214 239 191 224 224 244 261 271 268 253 307 287 327 353 68 294 104 111 113 94 125 149 155 162 163 167 166 168 175 180 175 171 171 173 176 170 171 160 144 143 131 118 125 149 144 123 119 118 114 109 125 139 133 132 139 148 142 146 142 137 128 132 133 139 117 105 106 106 104 106 112 110 90 74 93 103 87 89 104 112 117 111 105 103 103 98 79 67 71 77 68 67 83 76 95 128 132
261 221 170 182 192 232 235 242 271 311 301 281 285 18 106 289 289 91 8 106 149 171 178 172 175 168 167 169 176 169 165 177 174 137 133 144 146 154 142 111 119 126 119 127 128 125 126 129 135 143 157 159 160 143 147 146 143 141 136 139 134 135 129 120 118 119 119 115 111 109 107 107 102 86 75 84 85 81 104 116 113 114 116 107 88 91 88 76 74 78 91 104 102 88 68 99 126
175 130 224 271 254 238 334 199 161 68 215 253 227 210 128 274 292 136 141 205 164 153 160 194 187 171 176 180 166 168 173 176 138 125 138 150 166 151 116 117 118 120 123 132 141 143 145 145 149 159 170 169 167 164 159 163 152 147 144 148 146 145 146 142 131 124 121 114 118 121 118 119 111 108 91 66 74 78 88 98 104 105 97 97 93 85 88 99 98 99 98 88 86 101 103 99 92
149 152 186 320 310 25 65 333 68 132 265 259 237 166 137 157 286 288 247 189 165 161 175 181 183 181 173 175 169 165 171 166 148 127 137 148 154 147 130 123 129 129 126 130 137 137 151 152 153 160 165 173 169 159 163 155 131 133 142 148 146 150 149 148 144 145 142 131 127 122 120 107 102 94 88 83 68 73 87 89 98 104 105 100 97 103 103 105 112 106 90 89 91 91 95 91 94
148 125 43 160 275 32 330 9 203 193 175 245 224 131 58 252 223 282 314 174 182 175 171 178 175 169 163 165 166 168 163 154 156 147 140 154 162 156 148 140 135 137 139 141 153 157 155 154 158 160 171 174 161 120 132 111 133 159 158 150 147 150 148 146 143 140 140 131 129 122 119 114 105 94 96 100 99 100 108 105 109 110 105 109 116 109 115 109 107 100 102 94 93 89 97 103 94
126 178 156 146 209 251 208 273 229 318 276 255 256 96 116 260 278 343 326 192 180 173 135 136 151 151 161 167 163 163 169 164 165 163 157 159 159 155 147 143 143 141 147 153 158 162 158 157 150 152 160 154 117 108 129 128 140 154 154 149 150 150 148 144 145 140 136 129 128 128 128 132 128 136 134 130 151 124 99 113 112 114 124 129 125 123 119 117 112 111 107 94 90 115 98 92 103
212 147 157 184 147 161 208 209 196 206 206 281 304 137 220 127 246 335 315 171 168 88 146 152 127 125 140 159 162 171 172 174 170 171 156 140 136 136 145 150 147 148 152 154 157 154 144 138 130 136 145 135 108 108 134 139 117 125 135 142 146 146 143 142 143 140 138 134 135 130 135 135 133 149 141 155 147 118 123 107 112 120 127 123 120 115 111 103 104 102 101 111 95 94 90 94 90
244 189 68 98 218 139 174 205 147 236 334 357 2 98 342 161 269 343 348 96 94 77 81 102 123 141 158 159 170 178 179 171 170 142 122 130 142 148 149 153 156 160 158 154 151 142 134 132 136 152 158 144 131 125 118 123 99 92 129 145 156 145 139 133 127 130 137 139 141 137 143 143 141 139 138 130 156 127 129 116 110 122 127 124 123 123 119 114 118 109 96 90 83 89 93 88 92
269 101 176 216 186 117 90 65 21 84 42 292 225 38 11 313 2 10 357 82 81 89 104 115 131 150 159 152 159 178 175 169 151 130 145 146 147 151 153 158 162 162 156 153 155 153 149 150 154 153 143 138 132 133 137 137 135 129 137 145 147 146 143 144 144 144 144 143 139 141 141 145 137 136 146 146 140 129 125 121 115 121 122 126 123 125 123 128 121 108 109 100 94 84 91 99 88
86 151 247 136 75 102 128 189 354 75 156 254 52 156 184 71 256 355 347 66 84 90 77 96 113 130 132 166 168 176 172 136 101 108 125 135 149 156 158 161 157 150 147 161 167 160 156 155 155 146 146 146 145 140 140 144 148 141 139 147 156 158 151 145 142 144 142 137 137 132 126 134 150 158 146 147 131 128 121 116 120 125 129 124 128 128 128 130 116 104 107 95 108 95 88 73 72
163 198 204 107 263 244 321 96 79 104 259 259 338 321 121 135 276 3 309 299 206 69 102 118 125 132 143 158 173 160 102 92 82 103 113 115 119 123 136 133 109 109 116 99 77 117 137 143 143 142 144 139 143 141 139 149 172 148 145 151 157 162 150 144 141 139 140 140 142 141 144 148 143 147 137 132 128 128 124 129 130 133 125 125 124 131 127 115 116 119 110 101 72 84 86 77 45
348 72 30 315 102 151 114 201 166 122 204 90 289 59 154 31 307 311 286 260 296 38 97 110 110 110 118 135 178 71 82 79 90 89 103 110 108 111 113 108 100 102 97 88 83 100 136 142 138 132 125 122 118 114 106 117 167 136 134 138 157 158 150 144 142 139 140 142 146 144 139 142 154 148 142 138 137 140 140 139 141 137 138 139 139 141 122 121 113 125 132 112 102 92 86 84 58
25 54 358 345 28 210 113 94 115 156 162 177 167 198 283 321 309 293 263 59 20 352 345 50 73 60 53 39 34 24 20 25 28 45 83 97 102 102 101 100 98 88 91 105 97 79 51 81 121 129 125 114 94 62 41 26 26 12 59 142 152 149 146 135 132 133 132 140 143 143 145 145 133 137 134 141 147 146 145 144 137 147 153 156 150 147 139 131 122 124 127 128 111 103 104 106 103
130 143 132 188 118 108 141 255 343 92 100 185 134 225 159 329 334 330 64 88 85 48 354 347 43 44 45 49 48 48 26 13 16 7 26 85 106 105 99 88 107 110 106 115 129 123 121 127 114 107 102 98 93 72 74 85 97 121 302 252 133 126 127 127 114 112 121 139 138 138 133 133 140 135 139 153 156 148 145 145 151 155 156 161 162 159 156 138 142 144 157 147 132 128 127 142 126